Weather History for Goldsboro, NC

Change the Weather History Date:

Thursday, September 5, 2013

  Actual Average (KGSB) Record (KGSB)
Temperature  
Mean Temperature 77 °F -  
Max Temperature 88 °F 82 °F 94 °F (2007)
Min Temperature 65 °F 65 °F 51 °F (1997)
Cooling Degree Days 12    
Growing Degree Days 27 (Base 50)    
Moisture  
Dew Point 70 °F    
Average Humidity 81    
Maximum Humidity 100    
Minimum Humidity 43    
Precipitation  
Precipitation 0.00 in - - ()
Sea Level Pressure  
Sea Level Pressure 30.06 in    
Wind  
Wind Speed 1 mph (WNW)    
Max Wind Speed 7 mph    
Max Gust Speed -    
Visibility 7 miles    
Events Fog    
Averages and records for this station are not official NWS values.
T = Trace of Precipitation, MM = Missing Value Source: NWS Daily Summary

Daily Weather History Graph

Daily Weather History Graph

Search for Another Location

Airport:

Trip Planner

Search our weather history database for the weather conditions in past years. The results will help you decide how hot, cold, wet, or windy it might be!

Date:

Astronomy

Sep. 05, 2013 Rise Set
Actual Time 6:47 AM EDT 7:32 PM EDT
Civil Twilight 6:21 AM EDT 7:58 PM EDT
Nautical Twilight 5:50 AM EDT 8:29 PM EDT
Astronomical Twilight 5:19 AM EDT 9:00 PM EDT
Moon 6:54 AM EDT (9/5) 7:26 PM EDT (9/5)
Length of Visible Light 13h 37m
Length of Day
12h 45m
New Moon, 0% of the Moon is Illuminated
Sep 5
New Moon
Sep 12
First Quarter
Sep 19
Full
Sep 26
Last Quarter
Oct 4
New

Hourly Weather History & Observations

Time (EDT) Temp. Heat Index Dew Point Humidity Pressure Visibility Wind Dir Wind Speed Gust Speed Precip Events Conditions
12:15 AM 72.9 °F - 72.9 °F 100% 30.09 in 4.0 mi Calm Calm - N/A   Clear
12:35 AM 71.8 °F - 71.8 °F 100% 30.09 in 3.0 mi Calm Calm - N/A   Clear
12:55 AM 72.5 °F - 72.5 °F 100% 30.08 in 3.0 mi Calm Calm - N/A   Clear
1:15 AM 72.0 °F - 72.0 °F 100% 30.08 in 4.0 mi Calm Calm - N/A   Clear
1:35 AM 71.2 °F - 71.2 °F 100% 30.08 in 5.0 mi Calm Calm - N/A   Clear
1:55 AM 71.8 °F - 71.8 °F 100% 30.08 in 1.2 mi Calm Calm - N/A   Mist
2:15 AM 71.1 °F - 71.1 °F 100% 30.07 in 2.5 mi Calm Calm - N/A   Clear
2:35 AM 70.7 °F - 70.7 °F 100% 30.07 in 4.0 mi Calm Calm - N/A   Scattered Clouds
2:55 AM 70.9 °F - 70.9 °F 100% 30.07 in 1.2 mi Calm Calm - N/A   Mostly Cloudy
3:15 AM 70.9 °F - 70.9 °F 100% 30.06 in 4.0 mi Calm Calm - N/A   Mostly Cloudy
3:35 AM 71.8 °F - 71.8 °F 100% 30.06 in 3.0 mi Calm Calm - N/A   Overcast
3:55 AM 71.6 °F - 71.6 °F 100% 30.06 in 2.5 mi Calm Calm - N/A   Overcast
4:15 AM 72.1 °F - 72.1 °F 100% 30.05 in 4.0 mi Calm Calm - N/A   Overcast
4:35 AM 72.3 °F - 72.3 °F 100% 30.06 in 3.0 mi Calm Calm - N/A   Overcast
4:55 AM 72.9 °F - 72.9 °F 100% 30.05 in 4.0 mi Calm Calm - N/A   Overcast
5:15 AM 72.9 °F - 72.9 °F 100% 30.05 in 3.0 mi Calm Calm - N/A   Overcast
5:35 AM 72.9 °F - 72.9 °F 100% 30.05 in 3.0 mi Calm Calm - N/A   Overcast
5:55 AM 72.5 °F - 72.5 °F 100% 30.05 in 3.0 mi Calm Calm - N/A   Overcast
6:15 AM 71.6 °F - 71.6 °F 100% 30.05 in 0.8 mi Calm Calm - N/A   Mostly Cloudy
6:35 AM 70.9 °F - 70.9 °F 100% 30.06 in 1.0 mi Calm Calm - N/A   Mist
6:55 AM 70.7 °F - 70.7 °F 100% 30.07 in 0.8 mi Calm Calm - N/A   Mostly Cloudy
7:15 AM 70.9 °F - 70.9 °F 100% 30.07 in 1.8 mi Calm Calm - N/A   Overcast
7:35 AM 71.2 °F - 71.2 °F 100% 30.08 in 1.2 mi Calm Calm - N/A   Mostly Cloudy
7:55 AM 72.0 °F - 72.0 °F 100% 30.08 in 1.5 mi Calm Calm - N/A   Overcast
8:15 AM 72.9 °F - 72.9 °F 100% 30.08 in 0.5 mi Calm Calm - N/A Fog Fog
8:35 AM 73.8 °F - 73.8 °F 100% 30.08 in 0.2 mi Calm Calm - N/A Fog Fog
8:55 AM 74.3 °F - 74.3 °F 100% 30.08 in 0.2 mi Calm Calm - N/A Fog Fog
9:15 AM 74.8 °F - 74.8 °F 100% 30.09 in 2.0 mi Calm Calm - N/A   Overcast
9:35 AM 76.1 °F - 75.7 °F 99% 30.09 in 5.0 mi Calm Calm - N/A   Scattered Clouds
9:55 AM 79.0 °F - 75.2 °F 88% 30.09 in 7.0 mi Calm Calm - N/A   Clear
10:15 AM 80.8 °F 85.9 °F 73.9 °F 80% 30.09 in 7.0 mi Calm Calm - N/A   Clear
10:35 AM 82.0 °F 87.4 °F 73.0 °F 74% 30.09 in 10.0 mi North 3.5 mph - N/A   Clear
10:55 AM 83.3 °F 88.4 °F 71.8 °F 68% 30.09 in 10.0 mi Calm Calm - N/A   Clear
11:15 AM 84.2 °F 88.4 °F 70.0 °F 62% 30.09 in 10.0 mi NNW 4.6 mph - N/A   Clear
11:35 AM 84.4 °F 87.6 °F 68.0 °F 58% 30.09 in 10.0 mi Calm Calm - N/A   Clear
11:55 AM 84.6 °F 87.4 °F 67.3 °F 56% 30.09 in 10.0 mi Calm Calm - N/A   Clear
12:15 PM 85.5 °F 88.2 °F 66.9 °F 54% 30.09 in 10.0 mi Calm Calm - N/A   Clear
12:35 PM 86.2 °F 88.4 °F 65.8 °F 51% 30.08 in 10.0 mi West 4.6 mph - N/A   Clear
12:55 PM 86.4 °F 87.8 °F 64.4 °F 48% 30.08 in 10.0 mi Calm Calm - N/A   Clear
1:15 PM 87.6 °F 90.8 °F 67.3 °F 51% 30.08 in 10.0 mi West 5.8 mph - N/A   Scattered Clouds
1:35 PM 86.2 °F 87.6 °F 64.6 °F 48% 30.07 in 10.0 mi Calm Calm - N/A   Scattered Clouds
1:55 PM 87.3 °F 88.9 °F 64.9 °F 47% 30.07 in 10.0 mi SSW 3.5 mph - N/A   Clear
2:15 PM 87.8 °F 88.8 °F 63.3 °F 44% 30.06 in 10.0 mi Calm Calm - N/A   Clear
2:35 PM 87.6 °F 89.7 °F 65.7 °F 48% 30.05 in 10.0 mi Calm Calm - N/A   Clear
2:55 PM 87.8 °F 89.7 °F 65.1 °F 47% 30.05 in 10.0 mi West 6.9 mph - N/A   Scattered Clouds
3:15 PM 87.8 °F 88.8 °F 63.7 °F 44% 30.04 in 10.0 mi West 5.8 mph - N/A   Clear
3:35 PM 88.7 °F 91.9 °F 67.5 °F 49% 30.03 in 10.0 mi WNW 4.6 mph - N/A   Scattered Clouds
3:55 PM 88.7 °F 91.1 °F 66.0 °F 47% 30.03 in 10.0 mi West 5.8 mph - N/A   Scattered Clouds
4:15 PM 88.9 °F 90.0 °F 63.7 °F 43% 30.02 in 10.0 mi NW 5.8 mph - N/A   Clear
4:35 PM 88.5 °F 89.8 °F 63.9 °F 44% 30.03 in 10.0 mi WNW 5.8 mph - N/A   Clear
4:55 PM 87.8 °F 89.7 °F 65.1 °F 47% 30.03 in 10.0 mi WNW 5.8 mph - N/A   Clear
5:15 PM 87.1 °F 88.9 °F 65.3 °F 48% 30.03 in 10.0 mi West 3.5 mph - N/A   Scattered Clouds
5:35 PM 86.5 °F 88.7 °F 66.0 °F 50% 30.03 in 10.0 mi West 4.6 mph - N/A   Scattered Clouds
5:55 PM 86.9 °F 88.6 °F 64.9 °F 48% 30.03 in 10.0 mi WNW 5.8 mph - N/A   Scattered Clouds
6:15 PM 86.0 °F 89.1 °F 67.5 °F 54% 30.03 in 10.0 mi WNW 4.6 mph - N/A   Clear
6:35 PM 85.1 °F 87.4 °F 66.4 °F 53% 30.03 in 10.0 mi WNW 3.5 mph - N/A   Clear
6:55 PM 83.8 °F 86.5 °F 67.3 °F 57% 30.03 in 10.0 mi Calm Calm - N/A   Clear
7:15 PM 80.4 °F 84.5 °F 72.1 °F 76% 30.02 in 10.0 mi Calm Calm - N/A   Clear
7:35 PM 76.6 °F - 71.1 °F 83% 30.03 in 10.0 mi Calm Calm - N/A   Clear
7:55 PM 74.8 °F - 71.6 °F 90% 30.03 in 10.0 mi Calm Calm - N/A   Clear
8:15 PM 73.4 °F - 71.8 °F 95% 30.03 in 10.0 mi Calm Calm - N/A   Clear
8:35 PM 72.1 °F - 70.9 °F 96% 30.04 in 10.0 mi Calm Calm - N/A   Clear
8:55 PM 72.5 °F - 70.7 °F 94% 30.05 in 10.0 mi Calm Calm - N/A   Clear
9:15 PM 71.1 °F - 70.0 °F 96% 30.05 in 10.0 mi Calm Calm - N/A   Clear
9:35 PM 70.5 °F - 70.0 °F 98% 30.06 in 10.0 mi Calm Calm - N/A   Clear
9:55 PM 69.1 °F - 68.7 °F 99% 30.06 in 10.0 mi Calm Calm - N/A   Clear
10:15 PM 69.1 °F - 68.7 °F 99% 30.07 in 10.0 mi Calm Calm - N/A   Clear
10:35 PM 67.8 °F - 67.3 °F 98% 30.07 in 10.0 mi Calm Calm - N/A   Clear
10:55 PM 67.6 °F - 67.5 °F 99% 30.07 in 10.0 mi Calm Calm - N/A   Clear
11:15 PM 67.1 °F - 67.1 °F 100% 30.07 in 10.0 mi Calm Calm - N/A   Clear
11:35 PM 66.6 °F - 66.6 °F 100% 30.08 in 10.0 mi Calm Calm - N/A   Clear
11:55 PM 65.8 °F - 65.8 °F 100% 30.07 in 10.0 mi Calm Calm - N/A   Clear